owner,sensor,date,latitude,longitude,vertical_datum,sea_water_temperature,qcFlag 
DISL,ioos:station:DISL:BSCA:1,2014-04-01T00:00:00Z,30.3288,-87.8293,0.0,18.15,2 
DISL,ioos:station:DISL:BSCA:1,2014-04-01T00:30:00Z,30.3288,-87.8293,0.0,18.06,2 
DISL,ioos:station:DISL:BSCA:1,2014-04-01T01:00:00Z,30.3288,-87.8293,0.0,17.97,2 
DISL,ioos:station:DISL:BSCA:1,2014-04-01T01:30:00Z,30.3288,-87.8293,0.0,17.96,2 
DISL,ioos:station:DISL:BSCA:1,2014-04-01T02:00:00Z,30.3288,-87.8293,0.0,17.93,2 
DISL,ioos:station:DISL:BSCA:1,2014-04-01T02:30:00Z,30.3288,-87.8293,0.0,17.89,2 
DISL,ioos:station:DISL:BSCA:1,2014-04-01T03:00:00Z,30.3288,-87.8293,0.0,17.87,2 
DISL,ioos:station:DISL:BSCA:1,2014-04-01T03:30:00Z,30.3288,-87.8293,0.0,17.83,2 
DISL,ioos:station:DISL:BSCA:1,2014-04-01T04:00:00Z,30.3288,-87.8293,0.0,17.79,2 
DISL,ioos:station:DISL:BSCA:1,2014-04-01T04:30:00Z,30.3288,-87.8293,0.0,17.75,2 
DISL,ioos:station:DISL:BSCA:1,2014-04-01T05:00:00Z,30.3288,-87.8293,0.0,17.7,2 
DISL,ioos:station:DISL:BSCA:1,2014-04-01T05:30:00Z,30.3288,-87.8293,0.0,17.66,2 
DISL,ioos:station:DISL:BSCA:1,2014-04-01T06:00:00Z,30.3288,-87.8293,0.0,17.62,2 
DISL,ioos:station:DISL:BSCA:1,2014-04-01T06:30:00Z,30.3288,-87.8293,0.0,17.62,2 
DISL,ioos:station:DISL:BSCA:1,2014-04-01T07:00:00Z,30.3288,-87.8293,0.0,17.59,2 
DISL,ioos:station:DISL:BSCA:1,2014-04-01T07:30:00Z,30.3288,-87.8293,0.0,17.57,2 
DISL,ioos:station:DISL:BSCA:1,2014-04-01T08:00:00Z,30.3288,-87.8293,0.0,17.55,2 
DISL,ioos:station:DISL:BSCA:1,2014-04-01T08:30:00Z,30.3288,-87.8293,0.0,17.51,2 
DISL,ioos:station:DISL:BSCA:1,2014-04-01T09:00:00Z,30.3288,-87.8293,0.0,17.5,2 
DISL,ioos:station:DISL:BSCA:1,2014-04-01T09:30:00Z,30.3288,-87.8293,0.0,17.48,2 
DISL,ioos:station:DISL:BSCA:1,2014-04-01T10:00:00Z,30.3288,-87.8293,0.0,17.45,2 
DISL,ioos:station:DISL:BSCA:1,2014-04-01T10:30:00Z,30.3288,-87.8293,0.0,17.43,2 
DISL,ioos:station:DISL:BSCA:1,2014-04-01T11:00:00Z,30.3288,-87.8293,0.0,17.42,2 
DISL,ioos:station:DISL:BSCA:1,2014-04-01T11:30:00Z,30.3288,-87.8293,0.0,17.38,2 
DISL,ioos:station:DISL:BSCA:1,2014-04-01T12:00:00Z,30.3288,-87.8293,0.0,17.36,2 
DISL,ioos:station:DISL:BSCA:1,2014-04-01T12:30:00Z,30.3288,-87.8293,0.0,17.33,2 
DISL,ioos:station:DISL:BSCA:1,2014-04-01T13:00:00Z,30.3288,-87.8293,0.0,17.32,2 
DISL,ioos:station:DISL:BSCA:1,2014-04-01T13:30:00Z,30.3288,-87.8293,0.0,17.31,2 
DISL,ioos:station:DISL:BSCA:1,2014-04-01T14:00:00Z,30.3288,-87.8293,0.0,17.27,2 
DISL,ioos:station:DISL:BSCA:1,2014-04-01T14:30:00Z,30.3288,-87.8293,0.0,17.31,2 
DISL,ioos:station:DISL:BSCA:1,2014-04-01T15:00:00Z,30.3288,-87.8293,0.0,17.38,2 
DISL,ioos:station:DISL:BSCA:1,2014-04-01T15:30:00Z,30.3288,-87.8293,0.0,17.37,2 
DISL,ioos:station:DISL:BSCA:1,2014-04-01T16:00:00Z,30.3288,-87.8293,0.0,17.28,2 
DISL,ioos:station:DISL:BSCA:1,2014-04-01T16:30:00Z,30.3288,-87.8293,0.0,17.39,2 
DISL,ioos:station:DISL:BSCA:1,2014-04-01T17:00:00Z,30.3288,-87.8293,0.0,17.51,2 
DISL,ioos:station:DISL:BSCA:1,2014-04-01T17:30:00Z,30.3288,-87.8293,0.0,17.24,2 
DISL,ioos:station:DISL:BSCA:1,2014-04-01T18:00:00Z,30.3288,-87.8293,0.0,17.55,2 
DISL,ioos:station:DISL:BSCA:1,2014-04-01T18:30:00Z,30.3288,-87.8293,0.0,17.47,2 
DISL,ioos:station:DISL:BSCA:1,2014-04-01T19:00:00Z,30.3288,-87.8293,0.0,17.82,2 
DISL,ioos:station:DISL:BSCA:1,2014-04-01T19:30:00Z,30.3288,-87.8293,0.0,17.85,2 
DISL,ioos:station:DISL:BSCA:1,2014-04-01T20:00:00Z,30.3288,-87.8293,0.0,18.42,2 
DISL,ioos:station:DISL:BSCA:1,2014-04-01T20:30:00Z,30.3288,-87.8293,0.0,18.49,2 
DISL,ioos:station:DISL:BSCA:1,2014-04-01T21:00:00Z,30.3288,-87.8293,0.0,18.71,2 
DISL,ioos:station:DISL:BSCA:1,2014-04-01T21:30:00Z,30.3288,-87.8293,0.0,18.76,2 
DISL,ioos:station:DISL:BSCA:1,2014-04-01T22:00:00Z,30.3288,-87.8293,0.0,18.85,2 
DISL,ioos:station:DISL:BSCA:1,2014-04-01T22:30:00Z,30.3288,-87.8293,0.0,18.9,2 
DISL,ioos:station:DISL:BSCA:1,2014-04-01T23:00:00Z,30.3288,-87.8293,0.0,18.87,2 
DISL,ioos:station:DISL:BSCA:1,2014-04-01T23:30:00Z,30.3288,-87.8293,0.0,18.85,2 
DISL,ioos:station:DISL:BSCA:1,2014-04-02T00:00:00Z,30.3288,-87.8293,0.0,18.79,2 
DISL,ioos:station:DISL:BSCA:1,2014-04-02T00:30:00Z,30.3288,-87.8293,0.0,18.75,2 
DISL,ioos:station:DISL:BSCA:1,2014-04-02T01:00:00Z,30.3288,-87.8293,0.0,18.67,2 
DISL,ioos:station:DISL:BSCA:1,2014-04-02T01:30:00Z,30.3288,-87.8293,0.0,18.59,2 
DISL,ioos:station:DISL:BSCA:1,2014-04-02T02:00:00Z,30.3288,-87.8293,0.0,18.56,2 
DISL,ioos:station:DISL:BSCA:1,2014-04-02T02:30:00Z,30.3288,-87.8293,0.0,18.56,2 
DISL,ioos:station:DISL:BSCA:1,2014-04-02T03:00:00Z,30.3288,-87.8293,0.0,18.51,2 
DISL,ioos:station:DISL:BSCA:1,2014-04-02T03:30:00Z,30.3288,-87.8293,0.0,18.57,2 
DISL,ioos:station:DISL:BSCA:1,2014-04-02T04:00:00Z,30.3288,-87.8293,0.0,18.56,2 
DISL,ioos:station:DISL:BSCA:1,2014-04-02T04:30:00Z,30.3288,-87.8293,0.0,18.54,2 
DISL,ioos:station:DISL:BSCA:1,2014-04-02T05:00:00Z,30.3288,-87.8293,0.0,18.54,2 
DISL,ioos:station:DISL:BSCA:1,2014-04-02T05:30:00Z,30.3288,-87.8293,0.0,18.53,2 
DISL,ioos:station:DISL:BSCA:1,2014-04-02T06:00:00Z,30.3288,-87.8293,0.0,18.5,2 
DISL,ioos:station:DISL:BSCA:1,2014-04-02T06:30:00Z,30.3288,-87.8293,0.0,18.36,2 
DISL,ioos:station:DISL:BSCA:1,2014-04-02T07:00:00Z,30.3288,-87.8293,0.0,18.35,2 
DISL,ioos:station:DISL:BSCA:1,2014-04-02T07:30:00Z,30.3288,-87.8293,0.0,18.33,2 
DISL,ioos:station:DISL:BSCA:1,2014-04-02T08:00:00Z,30.3288,-87.8293,0.0,18.25,2 
DISL,ioos:station:DISL:BSCA:1,2014-04-02T08:30:00Z,30.3288,-87.8293,0.0,18.17,2 
DISL,ioos:station:DISL:BSCA:1,2014-04-02T09:00:00Z,30.3288,-87.8293,0.0,18.14,2 
DISL,ioos:station:DISL:BSCA:1,2014-04-02T09:30:00Z,30.3288,-87.8293,0.0,18.14,2 
DISL,ioos:station:DISL:BSCA:1,2014-04-02T10:00:00Z,30.3288,-87.8293,0.0,18.13,2 
DISL,ioos:station:DISL:BSCA:1,2014-04-02T10:30:00Z,30.3288,-87.8293,0.0,18.12,2 
DISL,ioos:station:DISL:BSCA:1,2014-04-02T11:00:00Z,30.3288,-87.8293,0.0,18.13,2 
DISL,ioos:station:DISL:BSCA:1,2014-04-02T11:30:00Z,30.3288,-87.8293,0.0,18.12,2 
DISL,ioos:station:DISL:BSCA:1,2014-04-02T12:00:00Z,30.3288,-87.8293,0.0,18.08,2 
DISL,ioos:station:DISL:BSCA:1,2014-04-02T12:30:00Z,30.3288,-87.8293,0.0,18.03,2 
DISL,ioos:station:DISL:BSCA:1,2014-04-02T13:00:00Z,30.3288,-87.8293,0.0,18.05,2 
DISL,ioos:station:DISL:BSCA:1,2014-04-02T13:30:00Z,30.3288,-87.8293,0.0,18.1,2 
DISL,ioos:station:DISL:BSCA:1,2014-04-02T14:00:00Z,30.3288,-87.8293,0.0,18.14,2 
DISL,ioos:station:DISL:BSCA:1,2014-04-02T14:30:00Z,30.3288,-87.8293,0.0,18.17,2 
DISL,ioos:station:DISL:BSCA:1,2014-04-02T15:00:00Z,30.3288,-87.8293,0.0,18.29,2 
DISL,ioos:station:DISL:BSCA:1,2014-04-02T15:30:00Z,30.3288,-87.8293,0.0,18.3,2 
DISL,ioos:station:DISL:BSCA:1,2014-04-02T16:00:00Z,30.3288,-87.8293,0.0,18.44,2 
DISL,ioos:station:DISL:BSCA:1,2014-04-02T16:30:00Z,30.3288,-87.8293,0.0,18.52,2 
DISL,ioos:station:DISL:BSCA:1,2014-04-02T17:00:00Z,30.3288,-87.8293,0.0,18.62,2 
DISL,ioos:station:DISL:BSCA:1,2014-04-02T17:30:00Z,30.3288,-87.8293,0.0,18.67,2 
DISL,ioos:station:DISL:BSCA:1,2014-04-02T18:00:00Z,30.3288,-87.8293,0.0,18.76,2 
DISL,ioos:station:DISL:BSCA:1,2014-04-02T18:30:00Z,30.3288,-87.8293,0.0,18.9,2 
DISL,ioos:station:DISL:BSCA:1,2014-04-02T19:00:00Z,30.3288,-87.8293,0.0,18.94,2 
DISL,ioos:station:DISL:BSCA:1,2014-04-02T19:30:00Z,30.3288,-87.8293,0.0,19.06,2 
DISL,ioos:station:DISL:BSCA:1,2014-04-02T20:00:00Z,30.3288,-87.8293,0.0,19.17,2 
DISL,ioos:station:DISL:BSCA:1,2014-04-02T20:30:00Z,30.3288,-87.8293,0.0,19.25,2 
DISL,ioos:station:DISL:BSCA:1,2014-04-02T21:00:00Z,30.3288,-87.8293,0.0,19.13,2 
DISL,ioos:station:DISL:BSCA:1,2014-04-02T21:30:00Z,30.3288,-87.8293,0.0,19.39,2 
DISL,ioos:station:DISL:BSCA:1,2014-04-02T22:00:00Z,30.3288,-87.8293,0.0,19.37,2 
DISL,ioos:station:DISL:BSCA:1,2014-04-02T22:30:00Z,30.3288,-87.8293,0.0,19.43,2 
DISL,ioos:station:DISL:BSCA:1,2014-04-02T23:00:00Z,30.3288,-87.8293,0.0,19.48,2 
DISL,ioos:station:DISL:BSCA:1,2014-04-02T23:30:00Z,30.3288,-87.8293,0.0,19.45,2 
DISL,ioos:station:DISL:BSCA:1,2014-04-03T00:00:00Z,30.3288,-87.8293,0.0,19.46,2 
DISL,ioos:station:DISL:BSCA:1,2014-04-03T00:30:00Z,30.3288,-87.8293,0.0,19.49,2 
DISL,ioos:station:DISL:BSCA:1,2014-04-03T01:00:00Z,30.3288,-87.8293,0.0,19.49,2 
DISL,ioos:station:DISL:BSCA:1,2014-04-03T01:30:00Z,30.3288,-87.8293,0.0,19.49,2 
DISL,ioos:station:DISL:BSCA:1,2014-04-03T02:00:00Z,30.3288,-87.8293,0.0,19.49,2 
DISL,ioos:station:DISL:BSCA:1,2014-04-03T02:30:00Z,30.3288,-87.8293,0.0,19.5,2 
DISL,ioos:station:DISL:BSCA:1,2014-04-03T03:00:00Z,30.3288,-87.8293,0.0,19.5,2 
DISL,ioos:station:DISL:BSCA:1,2014-04-03T03:30:00Z,30.3288,-87.8293,0.0,19.49,2 
DISL,ioos:station:DISL:BSCA:1,2014-04-03T04:00:00Z,30.3288,-87.8293,0.0,19.48,2 
DISL,ioos:station:DISL:BSCA:1,2014-04-03T04:30:00Z,30.3288,-87.8293,0.0,19.47,2 
DISL,ioos:station:DISL:BSCA:1,2014-04-03T05:00:00Z,30.3288,-87.8293,0.0,19.46,2 
DISL,ioos:station:DISL:BSCA:1,2014-04-03T05:30:00Z,30.3288,-87.8293,0.0,19.45,2 
DISL,ioos:station:DISL:BSCA:1,2014-04-03T06:00:00Z,30.3288,-87.8293,0.0,19.44,2 
DISL,ioos:station:DISL:BSCA:1,2014-04-03T06:30:00Z,30.3288,-87.8293,0.0,19.44,2 
DISL,ioos:station:DISL:BSCA:1,2014-04-03T07:00:00Z,30.3288,-87.8293,0.0,19.45,2 
DISL,ioos:station:DISL:BSCA:1,2014-04-03T07:30:00Z,30.3288,-87.8293,0.0,19.44,2 
DISL,ioos:station:DISL:BSCA:1,2014-04-03T08:00:00Z,30.3288,-87.8293,0.0,19.41,2 
DISL,ioos:station:DISL:BSCA:1,2014-04-03T08:30:00Z,30.3288,-87.8293,0.0,19.39,2 
DISL,ioos:station:DISL:BSCA:1,2014-04-03T09:00:00Z,30.3288,-87.8293,0.0,19.37,2 
DISL,ioos:station:DISL:BSCA:1,2014-04-03T09:30:00Z,30.3288,-87.8293,0.0,19.35,2 
DISL,ioos:station:DISL:BSCA:1,2014-04-03T10:00:00Z,30.3288,-87.8293,0.0,19.28,2 
DISL,ioos:station:DISL:BSCA:1,2014-04-03T10:30:00Z,30.3288,-87.8293,0.0,19.18,2 
DISL,ioos:station:DISL:BSCA:1,2014-04-03T11:00:00Z,30.3288,-87.8293,0.0,19.17,2 
DISL,ioos:station:DISL:BSCA:1,2014-04-03T11:30:00Z,30.3288,-87.8293,0.0,19.2,2 
DISL,ioos:station:DISL:BSCA:1,2014-04-03T12:00:00Z,30.3288,-87.8293,0.0,19.18,2 
DISL,ioos:station:DISL:BSCA:1,2014-04-03T12:30:00Z,30.3288,-87.8293,0.0,19.17,2 
DISL,ioos:station:DISL:BSCA:1,2014-04-03T13:00:00Z,30.3288,-87.8293,0.0,19.17,2 
DISL,ioos:station:DISL:BSCA:1,2014-04-03T13:30:00Z,30.3288,-87.8293,0.0,19.19,2 
DISL,ioos:station:DISL:BSCA:1,2014-04-03T14:00:00Z,30.3288,-87.8293,0.0,19.24,2 
DISL,ioos:station:DISL:BSCA:1,2014-04-03T14:30:00Z,30.3288,-87.8293,0.0,19.35,2 
DISL,ioos:station:DISL:BSCA:1,2014-04-03T15:00:00Z,30.3288,-87.8293,0.0,19.47,2 
DISL,ioos:station:DISL:BSCA:1,2014-04-03T15:30:00Z,30.3288,-87.8293,0.0,19.49,2 
DISL,ioos:station:DISL:BSCA:1,2014-04-03T16:00:00Z,30.3288,-87.8293,0.0,19.63,2 
DISL,ioos:station:DISL:BSCA:1,2014-04-03T16:30:00Z,30.3288,-87.8293,0.0,19.58,2 
DISL,ioos:station:DISL:BSCA:1,2014-04-03T17:00:00Z,30.3288,-87.8293,0.0,19.73,2 
DISL,ioos:station:DISL:BSCA:1,2014-04-03T17:30:00Z,30.3288,-87.8293,0.0,19.71,2 
DISL,ioos:station:DISL:BSCA:1,2014-04-03T18:00:00Z,30.3288,-87.8293,0.0,19.74,2 
DISL,ioos:station:DISL:BSCA:1,2014-04-03T18:30:00Z,30.3288,-87.8293,0.0,19.8,2 
DISL,ioos:station:DISL:BSCA:1,2014-04-03T19:00:00Z,30.3288,-87.8293,0.0,19.8,2 
DISL,ioos:station:DISL:BSCA:1,2014-04-03T19:30:00Z,30.3288,-87.8293,0.0,19.92,2 
DISL,ioos:station:DISL:BSCA:1,2014-04-03T20:00:00Z,30.3288,-87.8293,0.0,19.99,2 
DISL,ioos:station:DISL:BSCA:1,2014-04-03T20:30:00Z,30.3288,-87.8293,0.0,20.13,2 
DISL,ioos:station:DISL:BSCA:1,2014-04-03T21:00:00Z,30.3288,-87.8293,0.0,20.16,2 
DISL,ioos:station:DISL:BSCA:1,2014-04-03T21:30:00Z,30.3288,-87.8293,0.0,20.34,2 
DISL,ioos:station:DISL:BSCA:1,2014-04-03T22:00:00Z,30.3288,-87.8293,0.0,20.49,2 
DISL,ioos:station:DISL:BSCA:1,2014-04-03T22:30:00Z,30.3288,-87.8293,0.0,20.61,2 
DISL,ioos:station:DISL:BSCA:1,2014-04-03T23:00:00Z,30.3288,-87.8293,0.0,20.7,2 
DISL,ioos:station:DISL:BSCA:1,2014-04-03T23:30:00Z,30.3288,-87.8293,0.0,20.79,2 
DISL,ioos:station:DISL:BSCA:1,2014-04-04T00:00:00Z,30.3288,-87.8293,0.0,20.87,2 
DISL,ioos:station:DISL:BSCA:1,2014-04-04T00:30:00Z,30.3288,-87.8293,0.0,20.84,2 
DISL,ioos:station:DISL:BSCA:1,2014-04-04T01:00:00Z,30.3288,-87.8293,0.0,20.85,2 
DISL,ioos:station:DISL:BSCA:1,2014-04-04T01:30:00Z,30.3288,-87.8293,0.0,20.85,2 
DISL,ioos:station:DISL:BSCA:1,2014-04-04T02:00:00Z,30.3288,-87.8293,0.0,20.83,2 
DISL,ioos:station:DISL:BSCA:1,2014-04-04T02:30:00Z,30.3288,-87.8293,0.0,20.82,2 
DISL,ioos:station:DISL:BSCA:1,2014-04-04T03:00:00Z,30.3288,-87.8293,0.0,20.8,2 
DISL,ioos:station:DISL:BSCA:1,2014-04-04T03:30:00Z,30.3288,-87.8293,0.0,20.78,2 
DISL,ioos:station:DISL:BSCA:1,2014-04-04T04:00:00Z,30.3288,-87.8293,0.0,20.75,2 
DISL,ioos:station:DISL:BSCA:1,2014-04-04T04:30:00Z,30.3288,-87.8293,0.0,20.71,2 
DISL,ioos:station:DISL:BSCA:1,2014-04-04T05:00:00Z,30.3288,-87.8293,0.0,20.61,2 
DISL,ioos:station:DISL:BSCA:1,2014-04-04T05:30:00Z,30.3288,-87.8293,0.0,20.47,2 
DISL,ioos:station:DISL:BSCA:1,2014-04-04T06:00:00Z,30.3288,-87.8293,0.0,20.37,2 
DISL,ioos:station:DISL:BSCA:1,2014-04-04T06:30:00Z,30.3288,-87.8293,0.0,20.33,2 
DISL,ioos:station:DISL:BSCA:1,2014-04-04T07:00:00Z,30.3288,-87.8293,0.0,20.32,2 
DISL,ioos:station:DISL:BSCA:1,2014-04-04T07:30:00Z,30.3288,-87.8293,0.0,20.33,2 
DISL,ioos:station:DISL:BSCA:1,2014-04-04T08:00:00Z,30.3288,-87.8293,0.0,20.35,2 
DISL,ioos:station:DISL:BSCA:1,2014-04-04T08:30:00Z,30.3288,-87.8293,0.0,20.22,2 
DISL,ioos:station:DISL:BSCA:1,2014-04-04T09:00:00Z,30.3288,-87.8293,0.0,20.17,2 
DISL,ioos:station:DISL:BSCA:1,2014-04-04T09:30:00Z,30.3288,-87.8293,0.0,20.14,2 
DISL,ioos:station:DISL:BSCA:1,2014-04-04T10:00:00Z,30.3288,-87.8293,0.0,20.12,2 
DISL,ioos:station:DISL:BSCA:1,2014-04-04T10:30:00Z,30.3288,-87.8293,0.0,20.11,2 
DISL,ioos:station:DISL:BSCA:1,2014-04-04T11:00:00Z,30.3288,-87.8293,0.0,20.1,2 
DISL,ioos:station:DISL:BSCA:1,2014-04-04T11:30:00Z,30.3288,-87.8293,0.0,20.09,2 
DISL,ioos:station:DISL:BSCA:1,2014-04-04T12:00:00Z,30.3288,-87.8293,0.0,20.07,2 
DISL,ioos:station:DISL:BSCA:1,2014-04-04T12:30:00Z,30.3288,-87.8293,0.0,20.13,2 
DISL,ioos:station:DISL:BSCA:1,2014-04-04T13:00:00Z,30.3288,-87.8293,0.0,20.16,2 
DISL,ioos:station:DISL:BSCA:1,2014-04-04T13:30:00Z,30.3288,-87.8293,0.0,20.26,2 
DISL,ioos:station:DISL:BSCA:1,2014-04-04T14:00:00Z,30.3288,-87.8293,0.0,20.4,2 
DISL,ioos:station:DISL:BSCA:1,2014-04-04T14:30:00Z,30.3288,-87.8293,0.0,20.49,2 
DISL,ioos:station:DISL:BSCA:1,2014-04-04T15:00:00Z,30.3288,-87.8293,0.0,20.52,2 
DISL,ioos:station:DISL:BSCA:1,2014-04-04T15:30:00Z,30.3288,-87.8293,0.0,20.52,2 
DISL,ioos:station:DISL:BSCA:1,2014-04-04T16:00:00Z,30.3288,-87.8293,0.0,20.42,2 
DISL,ioos:station:DISL:BSCA:1,2014-04-04T16:30:00Z,30.3288,-87.8293,0.0,20.52,2 
DISL,ioos:station:DISL:BSCA:1,2014-04-04T17:00:00Z,30.3288,-87.8293,0.0,20.51,2 
DISL,ioos:station:DISL:BSCA:1,2014-04-04T17:30:00Z,30.3288,-87.8293,0.0,20.55,2 
DISL,ioos:station:DISL:BSCA:1,2014-04-04T18:00:00Z,30.3288,-87.8293,0.0,20.51,2 
DISL,ioos:station:DISL:BSCA:1,2014-04-04T18:30:00Z,30.3288,-87.8293,0.0,20.65,2 
DISL,ioos:station:DISL:BSCA:1,2014-04-04T19:00:00Z,30.3288,-87.8293,0.0,20.6,2 
DISL,ioos:station:DISL:BSCA:1,2014-04-04T19:30:00Z,30.3288,-87.8293,0.0,20.75,2 
DISL,ioos:station:DISL:BSCA:1,2014-04-04T20:00:00Z,30.3288,-87.8293,0.0,20.83,2 
DISL,ioos:station:DISL:BSCA:1,2014-04-04T20:30:00Z,30.3288,-87.8293,0.0,20.84,2 
DISL,ioos:station:DISL:BSCA:1,2014-04-04T21:00:00Z,30.3288,-87.8293,0.0,20.93,2 
DISL,ioos:station:DISL:BSCA:1,2014-04-04T21:30:00Z,30.3288,-87.8293,0.0,21.03,2 
DISL,ioos:station:DISL:BSCA:1,2014-04-04T22:00:00Z,30.3288,-87.8293,0.0,21.05,2 
DISL,ioos:station:DISL:BSCA:1,2014-04-04T22:30:00Z,30.3288,-87.8293,0.0,21.08,2 
DISL,ioos:station:DISL:BSCA:1,2014-04-04T23:00:00Z,30.3288,-87.8293,0.0,20.99,2 
DISL,ioos:station:DISL:BSCA:1,2014-04-04T23:30:00Z,30.3288,-87.8293,0.0,20.8,2 
DISL,ioos:station:DISL:BSCA:1,2014-04-05T00:00:00Z,30.3288,-87.8293,0.0,20.52,2 
DISL,ioos:station:DISL:BSCA:1,2014-04-05T00:30:00Z,30.3288,-87.8293,0.0,20.45,2 
DISL,ioos:station:DISL:BSCA:1,2014-04-05T01:00:00Z,30.3288,-87.8293,0.0,20.57,2 
DISL,ioos:station:DISL:BSCA:1,2014-04-05T01:30:00Z,30.3288,-87.8293,0.0,20.57,2 
DISL,ioos:station:DISL:BSCA:1,2014-04-05T02:00:00Z,30.3288,-87.8293,0.0,20.45,2 
DISL,ioos:station:DISL:BSCA:1,2014-04-05T02:30:00Z,30.3288,-87.8293,0.0,20.4,2 
DISL,ioos:station:DISL:BSCA:1,2014-04-05T03:00:00Z,30.3288,-87.8293,0.0,20.4,2 
DISL,ioos:station:DISL:BSCA:1,2014-04-05T03:30:00Z,30.3288,-87.8293,0.0,20.37,2 
DISL,ioos:station:DISL:BSCA:1,2014-04-05T04:00:00Z,30.3288,-87.8293,0.0,20.37,2 
DISL,ioos:station:DISL:BSCA:1,2014-04-05T04:30:00Z,30.3288,-87.8293,0.0,20.35,2 
DISL,ioos:station:DISL:BSCA:1,2014-04-05T05:00:00Z,30.3288,-87.8293,0.0,20.35,2 
DISL,ioos:station:DISL:BSCA:1,2014-04-05T05:30:00Z,30.3288,-87.8293,0.0,20.34,2 
DISL,ioos:station:DISL:BSCA:1,2014-04-05T06:00:00Z,30.3288,-87.8293,0.0,20.33,2 
DISL,ioos:station:DISL:BSCA:1,2014-04-05T06:30:00Z,30.3288,-87.8293,0.0,20.32,2 
DISL,ioos:station:DISL:BSCA:1,2014-04-05T07:00:00Z,30.3288,-87.8293,0.0,20.33,2 
DISL,ioos:station:DISL:BSCA:1,2014-04-05T07:30:00Z,30.3288,-87.8293,0.0,20.33,2 
DISL,ioos:station:DISL:BSCA:1,2014-04-05T08:00:00Z,30.3288,-87.8293,0.0,20.4,2 
DISL,ioos:station:DISL:BSCA:1,2014-04-05T08:30:00Z,30.3288,-87.8293,0.0,20.46,2 
DISL,ioos:station:DISL:BSCA:1,2014-04-05T09:00:00Z,30.3288,-87.8293,0.0,20.42,2 
DISL,ioos:station:DISL:BSCA:1,2014-04-05T09:30:00Z,30.3288,-87.8293,0.0,20.46,2 
DISL,ioos:station:DISL:BSCA:1,2014-04-05T10:00:00Z,30.3288,-87.8293,0.0,20.44,2 
DISL,ioos:station:DISL:BSCA:1,2014-04-05T10:30:00Z,30.3288,-87.8293,0.0,20.44,2 
DISL,ioos:station:DISL:BSCA:1,2014-04-05T11:00:00Z,30.3288,-87.8293,0.0,20.43,2 
DISL,ioos:station:DISL:BSCA:1,2014-04-05T11:30:00Z,30.3288,-87.8293,0.0,20.45,2 
DISL,ioos:station:DISL:BSCA:1,2014-04-05T12:00:00Z,30.3288,-87.8293,0.0,20.16,2 
DISL,ioos:station:DISL:BSCA:1,2014-04-05T12:30:00Z,30.3288,-87.8293,0.0,20.09,2 
DISL,ioos:station:DISL:BSCA:1,2014-04-05T13:00:00Z,30.3288,-87.8293,0.0,20.16,2 
DISL,ioos:station:DISL:BSCA:1,2014-04-05T13:30:00Z,30.3288,-87.8293,0.0,20.08,2 
DISL,ioos:station:DISL:BSCA:1,2014-04-05T14:00:00Z,30.3288,-87.8293,0.0,20.07,2 
DISL,ioos:station:DISL:BSCA:1,2014-04-05T14:30:00Z,30.3288,-87.8293,0.0,19.99,2 
DISL,ioos:station:DISL:BSCA:1,2014-04-05T15:00:00Z,30.3288,-87.8293,0.0,19.9,2 
DISL,ioos:station:DISL:BSCA:1,2014-04-05T15:30:00Z,30.3288,-87.8293,0.0,19.95,2 
DISL,ioos:station:DISL:BSCA:1,2014-04-05T16:00:00Z,30.3288,-87.8293,0.0,19.94,2 
DISL,ioos:station:DISL:BSCA:1,2014-04-05T16:30:00Z,30.3288,-87.8293,0.0,19.97,2 
DISL,ioos:station:DISL:BSCA:1,2014-04-05T17:00:00Z,30.3288,-87.8293,0.0,20.0,2 
DISL,ioos:station:DISL:BSCA:1,2014-04-05T17:30:00Z,30.3288,-87.8293,0.0,20.02,2 
DISL,ioos:station:DISL:BSCA:1,2014-04-05T18:00:00Z,30.3288,-87.8293,0.0,20.05,2 
DISL,ioos:station:DISL:BSCA:1,2014-04-05T18:30:00Z,30.3288,-87.8293,0.0,20.05,2 
DISL,ioos:station:DISL:BSCA:1,2014-04-05T19:00:00Z,30.3288,-87.8293,0.0,20.08,2 
DISL,ioos:station:DISL:BSCA:1,2014-04-05T19:30:00Z,30.3288,-87.8293,0.0,20.04,2 
DISL,ioos:station:DISL:BSCA:1,2014-04-05T20:00:00Z,30.3288,-87.8293,0.0,20.03,2 
DISL,ioos:station:DISL:BSCA:1,2014-04-05T20:30:00Z,30.3288,-87.8293,0.0,20.03,2 
DISL,ioos:station:DISL:BSCA:1,2014-04-05T21:00:00Z,30.3288,-87.8293,0.0,20.03,2 
DISL,ioos:station:DISL:BSCA:1,2014-04-05T21:30:00Z,30.3288,-87.8293,0.0,20.0,2 
DISL,ioos:station:DISL:BSCA:1,2014-04-05T22:00:00Z,30.3288,-87.8293,0.0,20.03,2 
DISL,ioos:station:DISL:BSCA:1,2014-04-05T22:30:00Z,30.3288,-87.8293,0.0,20.02,2 
DISL,ioos:station:DISL:BSCA:1,2014-04-05T23:00:00Z,30.3288,-87.8293,0.0,19.99,2 
DISL,ioos:station:DISL:BSCA:1,2014-04-05T23:30:00Z,30.3288,-87.8293,0.0,19.98,2 
DISL,ioos:station:DISL:BSCA:1,2014-04-06T00:00:00Z,30.3288,-87.8293,0.0,19.94,2 
DISL,ioos:station:DISL:BSCA:1,2014-04-06T00:30:00Z,30.3288,-87.8293,0.0,19.83,2 
DISL,ioos:station:DISL:BSCA:1,2014-04-06T01:00:00Z,30.3288,-87.8293,0.0,19.65,2 
DISL,ioos:station:DISL:BSCA:1,2014-04-06T01:30:00Z,30.3288,-87.8293,0.0,19.67,2 
DISL,ioos:station:DISL:BSCA:1,2014-04-06T02:00:00Z,30.3288,-87.8293,0.0,19.68,2 
DISL,ioos:station:DISL:BSCA:1,2014-04-06T02:30:00Z,30.3288,-87.8293,0.0,19.65,2 
DISL,ioos:station:DISL:BSCA:1,2014-04-06T03:00:00Z,30.3288,-87.8293,0.0,19.66,2 
DISL,ioos:station:DISL:BSCA:1,2014-04-06T03:30:00Z,30.3288,-87.8293,0.0,19.64,2 
DISL,ioos:station:DISL:BSCA:1,2014-04-06T04:00:00Z,30.3288,-87.8293,0.0,19.62,2 
DISL,ioos:station:DISL:BSCA:1,2014-04-06T04:30:00Z,30.3288,-87.8293,0.0,19.59,2 
DISL,ioos:station:DISL:BSCA:1,2014-04-06T05:00:00Z,30.3288,-87.8293,0.0,19.58,2 
DISL,ioos:station:DISL:BSCA:1,2014-04-06T05:30:00Z,30.3288,-87.8293,0.0,19.54,2 
DISL,ioos:station:DISL:BSCA:1,2014-04-06T06:00:00Z,30.3288,-87.8293,0.0,19.51,2 
DISL,ioos:station:DISL:BSCA:1,2014-04-06T06:30:00Z,30.3288,-87.8293,0.0,19.53,2 
DISL,ioos:station:DISL:BSCA:1,2014-04-06T07:00:00Z,30.3288,-87.8293,0.0,19.53,2 
DISL,ioos:station:DISL:BSCA:1,2014-04-06T07:30:00Z,30.3288,-87.8293,0.0,19.52,2 
DISL,ioos:station:DISL:BSCA:1,2014-04-06T08:00:00Z,30.3288,-87.8293,0.0,19.5,2 
DISL,ioos:station:DISL:BSCA:1,2014-04-06T08:30:00Z,30.3288,-87.8293,0.0,19.51,2 
DISL,ioos:station:DISL:BSCA:1,2014-04-06T09:00:00Z,30.3288,-87.8293,0.0,19.5,2 
DISL,ioos:station:DISL:BSCA:1,2014-04-06T09:30:00Z,30.3288,-87.8293,0.0,19.67,2 
DISL,ioos:station:DISL:BSCA:1,2014-04-06T10:00:00Z,30.3288,-87.8293,0.0,19.91,2 
DISL,ioos:station:DISL:BSCA:1,2014-04-06T10:30:00Z,30.3288,-87.8293,0.0,19.97,2 
DISL,ioos:station:DISL:BSCA:1,2014-04-06T11:00:00Z,30.3288,-87.8293,0.0,20.0,2 
DISL,ioos:station:DISL:BSCA:1,2014-04-06T11:30:00Z,30.3288,-87.8293,0.0,20.02,2 
DISL,ioos:station:DISL:BSCA:1,2014-04-06T12:00:00Z,30.3288,-87.8293,0.0,20.05,2 
DISL,ioos:station:DISL:BSCA:1,2014-04-06T12:30:00Z,30.3288,-87.8293,0.0,20.03,2 
DISL,ioos:station:DISL:BSCA:1,2014-04-06T13:00:00Z,30.3288,-87.8293,0.0,20.05,2 
DISL,ioos:station:DISL:BSCA:1,2014-04-06T13:30:00Z,30.3288,-87.8293,0.0,19.99,2 
DISL,ioos:station:DISL:BSCA:1,2014-04-06T14:00:00Z,30.3288,-87.8293,0.0,20.0,2 
DISL,ioos:station:DISL:BSCA:1,2014-04-06T14:30:00Z,30.3288,-87.8293,0.0,20.03,2 
DISL,ioos:station:DISL:BSCA:1,2014-04-06T15:00:00Z,30.3288,-87.8293,0.0,19.89,2 
DISL,ioos:station:DISL:BSCA:1,2014-04-06T15:30:00Z,30.3288,-87.8293,0.0,19.88,2 
DISL,ioos:station:DISL:BSCA:1,2014-04-06T16:00:00Z,30.3288,-87.8293,0.0,19.97,2 
DISL,ioos:station:DISL:BSCA:1,2014-04-06T16:30:00Z,30.3288,-87.8293,0.0,19.95,2 
DISL,ioos:station:DISL:BSCA:1,2014-04-06T17:00:00Z,30.3288,-87.8293,0.0,19.95,2 
DISL,ioos:station:DISL:BSCA:1,2014-04-06T17:30:00Z,30.3288,-87.8293,0.0,19.97,2 
DISL,ioos:station:DISL:BSCA:1,2014-04-06T18:00:00Z,30.3288,-87.8293,0.0,19.99,2 
DISL,ioos:station:DISL:BSCA:1,2014-04-06T18:30:00Z,30.3288,-87.8293,0.0,19.96,2 
DISL,ioos:station:DISL:BSCA:1,2014-04-06T19:00:00Z,30.3288,-87.8293,0.0,19.95,2 
DISL,ioos:station:DISL:BSCA:1,2014-04-06T19:30:00Z,30.3288,-87.8293,0.0,19.96,2 
DISL,ioos:station:DISL:BSCA:1,2014-04-06T20:00:00Z,30.3288,-87.8293,0.0,19.99,2 
DISL,ioos:station:DISL:BSCA:1,2014-04-06T20:30:00Z,30.3288,-87.8293,0.0,20.04,2 
DISL,ioos:station:DISL:BSCA:1,2014-04-06T21:00:00Z,30.3288,-87.8293,0.0,20.07,2 
DISL,ioos:station:DISL:BSCA:1,2014-04-06T21:30:00Z,30.3288,-87.8293,0.0,20.08,2 
DISL,ioos:station:DISL:BSCA:1,2014-04-06T22:00:00Z,30.3288,-87.8293,0.0,20.11,2 
DISL,ioos:station:DISL:BSCA:1,2014-04-06T22:30:00Z,30.3288,-87.8293,0.0,20.14,2 
DISL,ioos:station:DISL:BSCA:1,2014-04-06T23:00:00Z,30.3288,-87.8293,0.0,20.15,2 
DISL,ioos:station:DISL:BSCA:1,2014-04-06T23:30:00Z,30.3288,-87.8293,0.0,20.19,2 
DISL,ioos:station:DISL:BSCA:1,2014-04-07T00:00:00Z,30.3288,-87.8293,0.0,20.16,2 
DISL,ioos:station:DISL:BSCA:1,2014-04-07T00:30:00Z,30.3288,-87.8293,0.0,20.18,2 
DISL,ioos:station:DISL:BSCA:1,2014-04-07T01:00:00Z,30.3288,-87.8293,0.0,20.19,2 
DISL,ioos:station:DISL:BSCA:1,2014-04-07T01:30:00Z,30.3288,-87.8293,0.0,20.19,2 
DISL,ioos:station:DISL:BSCA:1,2014-04-07T02:00:00Z,30.3288,-87.8293,0.0,20.21,2 
DISL,ioos:station:DISL:BSCA:1,2014-04-07T02:30:00Z,30.3288,-87.8293,0.0,20.19,2 
DISL,ioos:station:DISL:BSCA:1,2014-04-07T03:00:00Z,30.3288,-87.8293,0.0,20.17,2 